Date String (YYYY-MM-DD hh:mm:ss) UTC,Instrument flags,Ambient pressure (hPa),Sample flow (lpm),Bypass flow (lpm),Sample temperature (°C),Ambient temperature (°C),ASC tube jacket temperature (°C),LED temperature (°C),Box temperature (°C),Sample RH (%),Span deviation,Mass concentration (μg/m³),Mass concentration (μg/m³),Mass concentration (μg/m³)
DateTimeUTC,F1_M11,P_M11,Q1_M11,Q2_M11,T1_M11,T2_M11,T3_M11,T4_M11,T5_M11,U1_M11,ZSPAN_M11,X0_M11,X2_M11,X1_M11
2022-12-19 15:00:00,,0823.0,4.97,0.00,21.7,22.1,00.0,30.5,23.7,05.1,0000.0,0004.11,0001.16,0000.73
2022-12-19 15:01:00,,0823.0,5.04,0.00,21.8,22.1,00.0,30.5,23.8,05.1,0000.0,0003.63,0001.09,0000.69
2022-12-19 15:02:00,,0822.9,4.96,0.00,21.9,21.7,00.0,30.6,23.8,05.0,0000.0,0003.68,0001.08,0000.68
2022-12-19 15:03:00,,0823.0,5.02,0.00,21.9,21.3,00.0,30.6,23.7,05.1,0000.0,0003.65,0001.09,0000.67
2022-12-19 15:04:00,,0823.1,5.01,0.00,21.9,21.0,00.0,30.6,23.6,05.3,0000.0,0003.94,0001.10,0000.68
2022-12-19 15:05:00,,0823.1,4.96,0.00,21.8,20.8,00.0,30.6,23.6,05.6,0000.0,0003.76,0001.13,0000.73
2022-12-19 15:06:00,,0823.1,5.02,0.00,21.8,20.7,00.0,30.6,23.6,05.5,0000.0,0003.92,0001.18,0000.80
2022-12-19 15:07:00,,0823.1,5.00,0.00,21.8,20.6,00.0,30.6,23.6,05.4,0000.0,0004.15,0001.23,0000.83
2022-12-19 15:08:00,,0823.1,4.98,0.00,21.8,20.4,00.0,30.6,23.5,05.4,0000.0,0004.98,0001.26,0000.86
2022-12-19 15:09:00,,0823.1,5.02,0.00,21.8,20.3,00.0,30.6,23.4,05.3,0000.0,0005.04,0001.26,0000.88
2022-12-19 15:10:00,,0823.0,5.00,0.00,21.7,20.1,00.0,30.6,23.3,05.4,0000.0,0005.20,0001.31,0000.93
2022-12-19 15:11:00,,0823.1,4.96,0.00,21.7,19.9,00.0,30.6,23.3,05.3,0000.0,0006.43,0001.39,0000.97
2022-12-19 15:12:00,,0823.1,5.01,0.00,21.6,19.7,00.0,30.6,23.2,05.4,0000.0,0006.50,0001.45,0001.01
2022-12-19 15:13:00,,0823.1,5.01,0.00,21.6,19.6,00.0,30.6,23.1,05.4,0000.0,0006.19,0001.49,0001.04
2022-12-19 15:14:00,,0823.0,5.02,0.00,21.5,19.5,00.0,30.5,23.1,05.2,0000.0,0006.09,0001.47,0001.04
2022-12-19 15:15:00,,0823.0,4.97,0.00,21.5,19.4,00.0,30.5,23.0,05.2,0000.0,0005.61,0001.44,0001.02
2022-12-19 15:16:00,,0823.0,5.00,0.00,21.5,20.5,00.0,30.4,23.2,05.2,0000.0,0004.95,0001.37,0000.96
2022-12-19 15:17:00,,0823.0,5.03,0.00,21.6,21.7,00.0,30.4,23.5,05.2,0000.0,0004.55,0001.29,0000.88
2022-12-19 15:18:00,,0823.1,4.97,0.00,21.7,21.8,00.0,30.5,23.6,05.2,0000.0,0004.27,0001.26,0000.85
2022-12-19 15:19:00,,0823.1,4.99,0.00,21.7,21.2,00.0,30.5,23.5,05.3,0000.0,0003.49,0001.23,0000.82
2022-12-19 15:20:00,,0823.1,4.99,0.00,21.7,20.8,00.0,30.5,23.4,05.3,0000.0,0003.29,0001.18,0000.79
2022-12-19 15:21:00,,0823.1,5.02,0.00,21.7,20.5,00.0,30.5,23.4,05.3,0000.0,0003.12,0001.11,0000.75
2022-12-19 15:22:00,,0823.2,4.96,0.00,21.7,20.4,00.0,30.5,23.3,05.3,0000.0,0002.06,0001.10,0000.72
2022-12-19 15:23:00,,0823.3,5.00,0.00,21.7,20.3,00.0,30.5,23.3,05.4,0000.0,0001.98,0001.05,0000.69
2022-12-19 15:24:00,,0823.2,5.03,0.00,21.6,20.1,00.0,30.5,23.3,05.4,0000.0,0001.84,0000.99,0000.66
2022-12-19 15:25:00,,0823.3,5.01,0.00,21.6,20.1,00.0,30.5,23.2,05.3,0000.0,0001.80,0000.98,0000.65
2022-12-19 15:26:00,,0823.3,4.96,0.00,21.6,20.1,00.0,30.5,23.2,05.2,0000.0,0001.80,0000.97,0000.65
2022-12-19 15:27:00,,0823.3,5.03,0.00,21.6,20.0,00.0,30.5,23.2,05.2,0000.0,0001.76,0000.94,0000.65
2022-12-19 15:28:00,,0823.4,5.02,0.00,21.5,20.0,00.0,30.5,23.2,05.2,0000.0,0001.76,0000.93,0000.65
2022-12-19 15:29:00,,0823.4,4.97,0.00,21.5,20.0,00.0,30.5,23.2,05.3,0000.0,0001.69,0000.91,0000.64
2022-12-19 15:30:00,,0823.4,5.00,0.00,21.5,20.0,00.0,30.5,23.2,05.3,0000.0,0001.68,0000.88,0000.65
2022-12-19 15:31:00,,0823.3,5.02,0.00,21.5,20.3,00.0,30.4,23.2,05.2,0000.0,0001.68,0000.88,0000.64
2022-12-19 15:32:00,,0823.4,4.96,0.00,21.6,21.5,00.0,30.4,23.5,05.2,0000.0,0001.70,0000.88,0000.64
2022-12-19 15:33:00,,0823.4,5.04,0.00,21.8,22.2,00.0,30.4,23.8,05.1,0000.0,0001.52,0000.82,0000.63
2022-12-19 15:34:00,,0823.4,4.97,0.00,21.8,22.0,00.0,30.5,23.8,05.1,0000.0,0001.52,0000.81,0000.63
2022-12-19 15:35:00,,0823.4,5.04,0.00,21.9,21.6,00.0,30.5,23.7,05.3,0000.0,0001.48,0000.81,0000.63
2022-12-19 15:36:00,,0823.3,4.96,0.00,21.9,21.3,00.0,30.6,23.7,05.2,0000.0,0001.50,0000.83,0000.64
2022-12-19 15:37:00,,0823.4,5.04,0.00,21.9,21.1,00.0,30.6,23.7,05.2,0000.0,0001.49,0000.83,0000.65
2022-12-19 15:38:00,,0823.5,4.95,0.00,21.9,20.9,00.0,30.6,23.7,05.2,0000.0,0001.53,0000.87,0000.68
2022-12-19 15:39:00,,0823.6,5.04,0.00,21.9,20.8,00.0,30.6,23.7,05.1,0000.0,0002.34,0000.99,0000.71
2022-12-19 15:40:00,,0823.6,5.03,0.00,21.9,20.8,00.0,30.6,23.7,05.1,0000.0,0003.81,0001.04,0000.72
2022-12-19 15:41:00,,0823.6,4.95,0.00,21.9,20.7,00.0,30.6,23.7,05.4,0000.0,0007.19,0001.71,0000.81
2022-12-19 15:42:00,,0823.6,5.03,0.00,21.9,20.7,00.0,30.6,23.6,05.4,0000.0,0011.28,0002.35,0000.89
2022-12-19 15:43:00,,0823.6,5.03,0.00,21.9,20.6,00.0,30.6,23.6,05.5,0000.0,0015.87,0003.12,0000.98
2022-12-19 15:44:00,,0823.6,4.97,0.00,21.9,20.6,00.0,30.6,23.6,05.5,0000.0,0019.06,0003.42,0001.05
2022-12-19 15:45:00,,0823.7,4.99,0.00,21.9,20.6,00.0,30.7,23.6,05.4,0000.0,0020.73,0003.64,0001.11
2022-12-19 15:46:00,,0823.6,5.02,0.00,21.9,20.6,00.0,30.7,23.6,05.2,0000.0,0021.05,0003.73,0001.13
2022-12-19 15:47:00,,0823.7,5.02,0.00,21.9,20.6,00.0,30.7,23.6,05.4,0000.0,0021.73,0003.80,0001.14
2022-12-19 15:48:00,,0823.7,4.96,0.00,21.9,20.5,00.0,30.7,23.6,05.9,0000.0,0022.41,0003.92,0001.27
2022-12-19 15:49:00,,0823.7,5.02,0.00,21.8,20.4,00.0,30.7,23.5,05.9,0000.0,0023.15,0004.03,0001.39
2022-12-19 15:50:00,,0823.7,5.02,0.00,21.8,20.4,00.0,30.7,23.5,06.0,0000.0,0023.44,0004.11,0001.54
2022-12-19 15:51:00,,0823.8,4.97,0.00,21.8,20.4,00.0,30.7,23.6,05.8,0000.0,0023.43,0004.21,0001.65
2022-12-19 15:52:00,,0823.7,5.00,0.00,21.8,20.4,00.0,30.7,23.6,05.7,0000.0,0022.60,0004.02,0001.64
2022-12-19 15:53:00,,0823.7,5.02,0.00,21.8,20.4,00.0,30.6,23.6,05.5,0000.0,0019.24,0003.73,0001.61
2022-12-19 15:54:00,,0823.7,5.01,0.00,21.8,20.4,00.0,30.6,23.6,05.3,0000.0,0014.70,0003.31,0001.54
2022-12-19 15:55:00,,0823.7,4.96,0.00,21.8,20.3,00.0,30.6,23.5,05.3,0000.0,0011.61,0003.01,0001.50
2022-12-19 15:56:00,,0823.7,5.03,0.00,21.8,20.5,00.0,30.6,23.5,05.5,0000.0,0009.88,0002.67,0001.45
2022-12-19 15:57:00,,0823.7,4.98,0.00,21.9,21.7,00.0,30.6,23.8,05.3,0000.0,0009.52,0002.50,0001.42
2022-12-19 15:58:00,,0823.7,5.02,0.00,22.0,22.5,00.0,30.6,24.0,05.2,0000.0,0008.85,0002.38,0001.40
2022-12-19 15:59:00,,0823.7,4.96,0.00,22.1,21.9,00.0,30.7,24.0,05.8,0000.0,0008.36,0002.31,0001.38
